Regional Weather Roundup
Issued by NWS Charleston, SC

Current Version | Previous Version | Text Only | Print | Product List | Glossary Off
Versions: 1 2 3 4 5 6 7 8 9 10 11 12 13 14 15 16 17 18 19 20 21 22 23 24 25 26 27 28 29 30 31 32 33 34 35 36 37 38 39 40 41 42 43 44 45 46 47 48 49 50
053 ASUS42 KCHS 252112 RWRCHS Regional Weather Roundup National Weather Service Charleston SC 500 PM EDT WED APR 25 2018 NOTE: "fair" indicates few or no clouds below 12,000 feet with no significant weather and/or obstructions to visibility. Not all stations are quality controlled. Use data with caution, especially dewpoint observations. SCZ027-030-031-034>040-042>050-252200- ...Southeast South Carolina... CITY SKY/WX TMP DP RH WIND PRES REMARKS N Charleston FAIR 78 55 44 W13 29.76F Waterfront Prk N/A 72 62 71 S6 29.61F Mount Pleasant FAIR 77 55 47 W8 29.76S Johns Island FAIR 75 61 60 S7 29.77F Pinopolis N/A 72 63 73 N6 29.69F Moncks Corner CLOUDY 75 50 41 CALM 29.76F Summerville FAIR 77 54 44 W9 29.77F Beaufort MCAS FAIR 78 55 44 W8 29.79F Beaufort Arpt FAIR 77 54 44 W13 29.78F Hilton Head Is PTSUNNY 77 54 44 W6 29.80F Walterboro FAIR 77 54 44 W12G20 29.78F Allendale FAIR 77 54 44 CALM 29.78F ...Southern Midlands and Pee Dee... CITY SKY/WX TMP DP RH WIND PRES REMARKS Georgetown FAIR 77 54 44 W10G17 29.76S Kingstree MOCLDY 75 52 43 W8 29.75F Orangeburg PTSUNNY 76 54 46 VRB3 29.77F Barnwell NOT AVBL Aiken MOCLDY 73 52 46 W7G17 29.82F Manning FAIR 72 48 43 W8G16 29.76F Columbia PTSUNNY 77 57 50 NW5 29.76F Sumter CLOUDY 76 53 44 W15 29.74S Florence PTSUNNY 78 55 44 W12 29.74F Myrtle Beach FAIR 78 56 46 W10 29.75S N Myrtle Beach FAIR 72 62 71 S12 29.73F $$ GAZ063-065-086>088-099>101-113>116-118-119-134>141-150-252200- ...Southeast Georgia... CITY SKY/WX TMP DP RH WIND PRES REMARKS Savannah Arpt FAIR 77 54 44 W15G24 29.80F Hunter AAF FAIR 78 55 43 NW15 29.77F Fort Stewart FAIR 78 55 43 W14 29.79F Statesboro CLOUDY 75 49 39 NW9 29.82S Sylvania FAIR 75 58 55 NW8 29.81F Claxton CLOUDY 76 56 50 SW9 29.82S ...CSRA, Central and far Southeast Georgia... CITY SKY/WX TMP DP RH WIND PRES REMARKS Thomson CLOUDY 74 53 47 NW8 29.86S Augusta-Bush PTSUNNY 78 55 44 W12 29.79S Augusta-Daniel CLOUDY 75 54 47 VRB7 29.81S Swainsboro CLOUDY 73 55 53 NW13 29.84S Vidalia FAIR 75 52 43 W7 29.83F Eastman CLOUDY 74 43 32 W14G20 29.89R Hazlehurst MOCLDY 77 50 38 W10 29.84S Alma FAIR 77 54 44 W9 29.83F Waycross PTSUNNY 80 48 32 W12G18 29.82S Jesup MOCLDY 79 52 38 NW12G17 29.82F Baxley CLOUDY 75 54 46 NW13 29.83S Brunswick FAIR 79 50 36 W10G20 29.80F Saint Simons FAIR 80 54 40 NW9G20 29.79F $$ SCZ027-028-034-036>038-045-046-048>050-GAZ119-141-252200- ...Lake and Supplemental Coastal Observations... STATION/POSITION TIME TEMP WIND PRES WAVE SWELL AIR SEA DIR/SP/G HT/PER HT/PER/DIR (UTC) (F) (DEG/KT/KT) (MB) (FT/S) (FT/S/D) Winyah Bay 1945 76 270/ 8 1008.0 Lake Murray 2020 71 270/ 4/ 6 1007.8 ACE Basin NERRS NOT AVBL Fort Pulaski 2048 67 310/ 14/ 16 1009.1F Sapelo Island 2000 79 290/ 12 1010.0 $$ ANZ835-935-AMZ111-154-330-350-352-354-370-450-454-472-252200- ...C-MAN and Buoy Observations... STATION/POSITION TIME TEMP WIND PRES WAVE SWELL AIR SEA DIR/SP/G HT/PER HT/PER/DIR (UTC) (F) (DEG/KT/KT) (MB) (FT/S) (FT/S/D) Buoy 41004 2050 69 230/ 17/ 21 1008.4F 6/ 9 5/130/ 9 Buoy 41008 2050 68 66 190/ 12/ 14 1008.6F 3/ 9 3/100/ 9 Folly Beach CMAN 2000 69 220/ 15/ 18 1009.3F Capers Nearshore 2008 67 66 240/ 17/ 23 1008.5F Fripp Nearshore 2008 67 66 220/ 10/ 16 1008.4F STATION/POSITION TIME TEMP WIND PRES WAVE SWELL AIR SEA DIR/SP/G HT/PER HT/PER/DIR (UTC) (F) (DEG/KT/KT) (MB) (FT/S) (FT/S/D) 5E St. Marys GA 2100 70 N/A 3/ 9 2/ 90/11 Frying Pan Buoy 2050 69 71 230/ 19/ 23 1007.4F 6/10 5/130/10 Buoy 41025 2050 70 70 220/ 19/ 25 1005.6F 8/ 9 7/130/ 9 Cape Lookout NC 2000 220/ 13/ 16 1006.1F Buoy 41002 2050 73 73 250/ 10/ 12 1009.2S 7/ 9 7/130/ 9 Buoy 41010 2050 74 75 250/ 12/ 16 1011.6F 6/ 9 5/ 80/ 9 St Augustine FL 2100 78 68 290/ 9/ 12 1010.8F $$

USA.gov is the U.S. government's official web portal to all federal, state and local government web resources and services.